Time,TemperatureF,DewpointF,PressureIn,WindDirection,WindDirectionDegrees,WindSpeedMPH,WindSpeedGustMPH,Humidity,HourlyPrecipIn,Conditions,Clouds,dailyrainin,SoftwareType,DateUTC
2013-02-27 19:15:00,52.7,42.8,29.77,WNW,286,0.0,0.0,69,0.00,,,0.00,Wunderground v.1.15,2013-02-28 00:15:00,
2013-02-27 19:20:00,52.6,42.7,29.76,WNW,286,0.0,0.0,69,0.00,,,0.00,Wunderground v.1.15,2013-02-28 00:20:00,
2013-02-27 19:25:00,52.4,42.9,29.77,WNW,286,0.0,1.0,70,0.00,,,0.00,Wunderground v.1.15,2013-02-28 00:25:00,
2013-02-27 19:30:00,52.2,42.7,29.77,WNW,286,0.0,1.0,70,0.00,,,0.00,Wunderground v.1.15,2013-02-28 00:30:00,
2013-02-27 19:40:00,51.8,42.7,29.76,SW,222,0.0,0.0,71,0.00,,,0.00,Wunderground v.1.15,2013-02-28 00:40:00,
2013-02-27 19:50:00,51.3,42.9,29.76,SW,222,0.0,0.0,73,0.00,,,0.00,Wunderground v.1.15,2013-02-28 00:50:00,
2013-02-27 20:00:00,50.9,42.9,29.76,SW,222,0.0,0.0,74,0.00,,,0.00,Wunderground v.1.15,2013-02-28 01:00:00,
2013-02-27 20:10:00,50.5,42.9,29.76,SSW,212,0.0,1.0,75,0.00,,,0.00,Wunderground v.1.15,2013-02-28 01:10:00,
2013-02-27 20:20:00,50.5,43.2,29.76,SSW,197,1.0,2.0,76,0.00,,,0.00,Wunderground v.1.15,2013-02-28 01:20:00,
2013-02-27 20:30:00,50.6,43.3,29.76,SSW,200,1.0,1.0,76,0.00,,,0.00,Wunderground v.1.15,2013-02-28 01:30:00,
2013-02-27 20:40:00,50.8,43.2,29.76,SW,219,1.0,1.0,75,0.00,,,0.00,Wunderground v.1.15,2013-02-28 01:40:00,
2013-02-27 20:50:00,50.8,43.2,29.76,SSW,200,1.0,1.0,75,0.00,,,0.00,Wunderground v.1.15,2013-02-28 01:50:00,
2013-02-27 21:00:00,51.0,43.0,29.76,SW,215,2.0,2.0,74,0.00,,,0.00,Wunderground v.1.15,2013-02-28 02:00:00,
2013-02-27 21:10:00,51.1,43.1,29.76,SSE,165,1.0,1.0,74,0.00,,,0.00,Wunderground v.1.15,2013-02-28 02:10:00,
2013-02-27 21:15:00,51.2,42.8,29.76,SW,224,1.0,1.0,73,0.00,,,0.00,Wunderground v.1.15,2013-02-28 02:15:00,
2013-02-27 21:25:00,51.3,42.9,29.76,West,267,2.0,2.0,73,0.00,,,0.00,Wunderground v.1.15,2013-02-28 02:25:00,
2013-02-27 21:35:00,51.2,42.8,29.76,SSW,197,2.0,2.0,73,0.00,,,0.00,Wunderground v.1.15,2013-02-28 02:35:00,
2013-02-27 21:40:00,51.1,42.7,29.76,SSW,213,2.0,2.0,73,0.00,,,0.00,Wunderground v.1.15,2013-02-28 02:40:00,
2013-02-27 21:50:00,51.0,42.6,29.76,WSW,257,2.0,3.0,73,0.00,,,0.00,Wunderground v.1.15,2013-02-28 02:50:00,
2013-02-27 21:55:00,51.0,42.6,29.76,SW,227,2.0,3.0,73,0.00,,,0.00,Wunderground v.1.15,2013-02-28 02:55:00,
2013-02-27 22:05:00,50.9,42.6,29.76,SSW,202,3.0,4.0,73,0.00,,,0.00,Wunderground v.1.15,2013-02-28 03:05:00,
2013-02-27 22:15:00,50.7,42.4,29.76,South,191,2.0,2.0,73,0.00,,,0.00,Wunderground v.1.15,2013-02-28 03:15:00,
2013-02-27 22:25:00,50.5,42.5,29.76,West,263,2.0,3.0,74,0.00,,,0.00,Wunderground v.1.15,2013-02-28 03:25:00,
2013-02-27 22:35:00,50.4,42.4,29.76,South,191,2.0,3.0,74,0.00,,,0.00,Wunderground v.1.15,2013-02-28 03:35:00,
2013-02-27 22:40:00,50.3,42.3,29.76,West,259,3.0,5.0,74,0.00,,,0.00,Wunderground v.1.15,2013-02-28 03:40:00,
2013-02-27 22:45:00,50.3,42.3,29.77,SW,214,3.0,6.0,74,0.00,,,0.00,Wunderground v.1.15,2013-02-28 03:45:00,
2013-02-27 22:55:00,50.2,42.2,29.76,WSW,244,3.0,3.0,74,0.00,,,0.00,Wunderground v.1.15,2013-02-28 03:55:00,
2013-02-27 23:05:00,50.0,42.4,29.76,SSW,211,3.0,3.0,75,0.00,,,0.00,Wunderground v.1.15,2013-02-28 04:05:00,
2013-02-27 23:10:00,49.9,42.3,29.76,WSW,244,3.0,4.0,75,0.00,,,0.00,Wunderground v.1.15,2013-02-28 04:10:00,
2013-02-27 23:20:00,49.7,42.1,29.76,South,182,3.0,3.0,75,0.00,,,0.00,Wunderground v.1.15,2013-02-28 04:20:00,
2013-02-27 23:30:00,49.7,42.1,29.76,South,182,3.0,6.0,75,0.00,,,0.00,Wunderground v.1.15,2013-02-28 04:30:00,
2013-02-27 23:40:00,49.6,42.3,29.76,West,263,3.0,4.0,76,0.00,,,0.00,Wunderground v.1.15,2013-02-28 04:40:00,
2013-02-27 23:50:00,49.4,42.1,29.76,WNW,293,3.0,3.0,76,0.00,,,0.00,Wunderground v.1.15,2013-02-28 04:50:00,